Location: Jackson
(42.2460°N, 84.4010°W)
Time: 15:27:32
(UTC-05:00)

ISS - Visible Passes

Search period start: 18 January 2026 00:00
Search period end: 28 January 2026 00:00
Orbit: 413 x 424 km, 51.6° (Epoch: 18 January)

Date Brightness Start Highest point End Pass type
(mag) Time Alt. Az. Time Alt. Az. Time Alt. Az.
18 Jan -2.4 18:02:21 10° W 18:05:21 30° NNW 18:08:22 10° NE visible
18 Jan -1.2 19:40:41 10° NW 19:41:55 15° NNW 19:41:55 15° NNW visible
19 Jan -1.7 18:52:31 10° NW 18:54:51 17° N 18:56:02 15° NNE visible
20 Jan -1.8 18:04:15 10° WNW 18:06:47 20° NNW 18:09:20 10° NE visible
20 Jan -1.2 19:42:08 10° NW 19:43:06 14° NNW 19:43:06 14° NNW visible
21 Jan -1.7 18:54:09 10° NW 18:56:22 16° N 18:57:12 15° NNE visible
22 Jan -1.7 18:06:01 10° NW 18:08:14 16° N 18:10:27 10° NE visible
22 Jan -1.4 19:43:07 10° NW 19:44:15 17° NNW 19:44:15 17° NNW visible
23 Jan -2.1 18:55:15 10° NW 18:57:47 19° NNE 18:58:24 18° NNE visible
24 Jan -1.9 19:43:51 10° NW 19:45:32 25° NNW 19:45:32 25° NNW visible
25 Jan -2.7 18:55:58 10° NW 18:58:58 29° NNE 18:59:47 26° NE visible
25 Jan -0.3 20:32:38 10° WNW 20:32:44 11° WNW 20:32:44 11° WNW visible
26 Jan -2.3 18:08:05 10° NW 18:10:50 23° NNE 18:13:34 10° ENE visible
26 Jan -2.9 19:44:34 10° WNW 19:47:06 48° WNW 19:47:06 48° WNW visible
27 Jan -3.8 18:56:35 10° NW 18:59:54 61° NNE 19:01:36 26° ESE visible
27 Jan -0.3 20:34:07 10° W 20:34:34 12° W 20:34:34 12° W visible
